Pasco, WA
on Sunday, November 25, 2012

Sunday
Previous Day Next Day
Daily Summary
 ActualAverageRecord
Temperature
Mean Temperature °F 38°F  
Max Temperature 47°F 45°F 68°F (1962)
Min Temperature 25°F 31°F 3°F (1985)
Degree Days
Heating Degree Days 29 27  
Month to date heating degree days 499 570  
Since 1 July heating degree days 943 1088  
Cooling Degree Days 0 0  
Month to date cooling degree days 0 0  
Year to date cooling degree days 788 710  
Moisture
Dew Point 30°F   
Average Humidity 77    
Maximum Humidity 100    
Minimum Humidity 53    
Precipitation
Precipitation T in in 0.62 in (1977)
Month to date precipitation 1.03  
Year to date precipitation 8.49  
Snow
Snow 0.00 in in in ()
Snow Depth 0.00 in   
Wind
Wind Speed 1 mph   
Max Wind Speed 8 mph   
Max Gust Speed 8 mph   
Visibility 6 miles   
Events Fog , Snow   

Key: T is trace of precipitation, MM is missing value
Source: NWS Daily Summary
Time(PST)TemperatureDew PointHumidity Pressure Visibility Wind DirectionWind SpeedGust SpeedPrecipitationEvents Conditions
12:53 AM 32.0°F 30.9°F 96% 30.19 in 7.0 miles Calm Calm - N/A   Clear
1:53 AM 30.9°F 30.0°F 96% 30.21 in 9.0 miles NNW 4.6 mph - N/A   Clear
2:53 AM 28.9°F 27.0°F 92% 30.22 in 10.0 miles Calm Calm - N/A   Clear
3:53 AM 28.0°F 27.0°F 96% 30.24 in 10.0 miles NW 3.5 mph - N/A   Clear
4:53 AM 27.0°F 26.1°F 96% 30.25 in 10.0 miles Calm Calm - N/A   Clear
5:53 AM 27.0°F 24.1°F 89% 30.26 in 10.0 miles Calm Calm - N/A   Clear
6:53 AM 26.1°F 23.0°F 88% 30.27 in 10.0 miles Calm Calm - N/A   Clear
7:01 AM 26.6°F 24.8°F 93% 30.27 in 10.0 miles Calm Calm - N/A   Partly Cloudy
7:27 AM 26.6°F 24.8°F 93% 30.27 in 5.0 miles Calm Calm - N/A   Mostly Cloudy
7:44 AM 26.6°F 26.6°F 100% 30.28 in 0.2 miles Calm Calm - N/A Fog Light Freezing Fog
7:53 AM 28.0°F 27.0°F 96% 30.30 in 0.2 miles Calm Calm - N/A Fog Light Freezing Fog
8:18 AM 30.2°F 28.4°F 93% 30.29 in 0.2 miles Calm Calm - N/A Fog Light Freezing Fog
8:27 AM 30.2°F 30.2°F 100% 30.30 in 0.2 miles Calm Calm - N/A Fog Light Freezing Fog
8:35 AM 30.2°F 30.2°F 100% 30.30 in 0.2 miles Calm Calm - N/A Fog Light Freezing Fog
8:53 AM 30.9°F 30.0°F 96% 30.32 in 0.2 miles Calm Calm - N/A Fog Light Freezing Fog
9:06 AM 30.2°F 30.2°F 100% 30.31 in 1.8 miles Calm Calm - N/A   Overcast
9:17 AM 30.2°F 30.2°F 100% 30.31 in 0.5 miles Calm Calm - N/A Fog Light Freezing Fog
9:38 AM 32.0°F 32.0°F 100% 30.31 in 0.2 miles Calm Calm - N/A Fog Fog
9:53 AM 32.0°F 32.0°F 100% 30.33 in 0.2 miles Calm Calm - N/A Fog Fog
10:27 AM 33.8°F 33.8°F 100% 30.32 in 0.2 miles Calm Calm - 0.00 in Fog , Snow Light Snow
10:53 AM 34.0°F 34.0°F 100% 30.33 in 0.2 miles Calm Calm - 0.00 in Fog Fog
11:35 AM 35.6°F 35.6°F 100% 30.32 in 0.5 miles Calm Calm - N/A Fog Fog
11:53 AM 35.1°F 35.1°F 100% 30.34 in 0.8 miles Calm Calm - N/A   Mist
12:34 PM 37.4°F 35.6°F 93% 30.32 in 3.0 miles Calm Calm - N/A   Mostly Cloudy
12:51 PM 39.2°F 37.4°F 93% 30.32 in 10.0 miles Calm Calm - N/A   Clear
12:53 PM 37.9°F 37.0°F 97% 30.33 in 10.0 miles Calm Calm - N/A   Clear
1:53 PM 44.1°F 35.1°F 71% 30.33 in 10.0 miles Calm Calm - N/A   Clear
2:53 PM 46.0°F 30.9°F 56% 30.33 in 10.0 miles NNE 4.6 mph - N/A   Clear
3:53 PM 42.1°F 32.0°F 67% 30.33 in 10.0 miles North 4.6 mph - N/A   Clear
4:53 PM 36.0°F 32.0°F 86% 30.34 in 10.0 miles Calm Calm - N/A   Clear
5:53 PM 30.9°F 28.9°F 92% 30.35 in 10.0 miles Calm Calm - N/A   Clear
6:53 PM 30.9°F 28.9°F 92% 30.36 in 10.0 miles Calm Calm - N/A   Clear
7:53 PM 30.0°F 28.0°F 92% 30.36 in 10.0 miles Calm Calm - N/A   Clear
8:53 PM 28.0°F 26.1°F 92% 30.37 in 10.0 miles NNW 3.5 mph - N/A   Clear
9:53 PM 28.0°F 27.0°F 96% 30.37 in 10.0 miles North 4.6 mph - N/A   Clear
10:53 PM 27.0°F 25.0°F 92% 30.37 in 10.0 miles Calm Calm - N/A   Clear
11:53 PM 27.0°F 24.1°F 89% 30.38 in 10.0 miles Calm Calm - N/A   Clear
Moon Phase
Nov. 25 Nov. 28 Dec. 06 Dec. 13 Dec. 20
Sunrise:07:12 AM (PST) Moon Rise:02:40 PM (PST)11/25
Sunset:04:14 PM (PST) Moon Set:04:24 AM (PST)11/25

Copyright © 2014 The Weather Underground, Inc.